Date String (YYYY-MM-DD hh:mm:ss) UTC,Instrument flags,Ambient pressure (hPa),Sample flow (lpm),Bypass flow (lpm),Sample temperature (°C),Ambient temperature (°C),ASC tube jacket temperature (°C),LED temperature (°C),Box temperature (°C),Sample RH (%),Span deviation,Mass concentration (μg/m³),Mass concentration (μg/m³),Mass concentration (μg/m³)
DateTimeUTC,F1_M11,P_M11,Q1_M11,Q2_M11,T1_M11,T2_M11,T3_M11,T4_M11,T5_M11,U1_M11,ZSPAN_M11,X0_M11,X2_M11,X1_M11
2022-10-27 14:00:00,,0823.0,4.99,0.00,24.9,23.1,00.0,33.8,26.7,19.0,0000.0,0002.22,0001.26,0001.02
2022-10-27 14:01:00,,0823.0,5.00,0.00,24.9,23.1,00.0,33.8,26.7,19.0,0000.0,0002.08,0001.24,0001.01
2022-10-27 14:02:00,,0823.0,5.00,0.00,24.9,23.0,00.0,33.8,26.7,19.1,0000.0,0002.05,0001.23,0001.00
2022-10-27 14:03:00,,0823.0,4.99,0.00,24.8,23.1,00.0,33.8,26.7,19.1,0000.0,0002.06,0001.23,0001.00
2022-10-27 14:04:00,,0823.1,4.99,0.00,24.8,23.1,00.0,33.8,26.7,19.1,0000.0,0002.06,0001.23,0000.98
2022-10-27 14:05:00,,0823.1,5.00,0.00,24.8,23.1,00.0,33.8,26.6,19.1,0000.0,0002.16,0001.25,0000.98
2022-10-27 14:06:00,,0823.1,5.02,0.00,24.8,23.1,00.0,33.7,26.6,19.2,0000.0,0002.05,0001.23,0000.97
2022-10-27 14:07:00,,0823.1,4.99,0.00,24.8,23.1,00.0,33.7,26.7,19.2,0000.0,0001.81,0001.18,0000.97
2022-10-27 14:08:00,,0823.2,4.99,0.00,24.8,23.1,00.0,33.7,26.6,19.2,0000.0,0001.79,0001.18,0000.97
2022-10-27 14:09:00,,0823.2,5.00,0.00,24.8,23.1,00.0,33.7,26.7,19.2,0000.0,0001.80,0001.18,0000.97
2022-10-27 14:10:00,,0823.1,4.99,0.00,24.8,23.1,00.0,33.7,26.7,19.2,0000.0,0001.74,0001.15,0000.95
2022-10-27 14:11:00,,0823.2,5.01,0.00,24.8,23.1,00.0,33.7,26.7,19.2,0000.0,0001.73,0001.15,0000.94
2022-10-27 14:12:00,,0823.2,5.01,0.00,24.8,23.1,00.0,33.7,26.7,19.3,0000.0,0001.72,0001.15,0000.93
2022-10-27 14:13:00,,0823.2,4.99,0.00,24.8,23.1,00.0,33.7,26.7,19.2,0000.0,0001.85,0001.16,0000.93
2022-10-27 14:14:00,,0823.2,5.00,0.00,24.8,23.1,00.0,33.7,26.7,19.3,0000.0,0002.09,0001.15,0000.93
2022-10-27 14:15:00,,0823.2,5.00,0.00,24.8,23.1,00.0,33.7,26.7,19.3,0000.0,0002.31,0001.17,0000.94
2022-10-27 14:16:00,,0823.3,4.99,0.00,24.8,23.2,00.0,33.6,26.7,19.3,0000.0,0002.91,0001.15,0000.94
2022-10-27 14:17:00,,0823.3,5.00,0.00,24.8,23.2,00.0,33.6,26.7,19.3,0000.0,0002.82,0001.14,0000.94
2022-10-27 14:18:00,,0823.4,5.00,0.00,24.8,23.2,00.0,33.6,26.7,19.3,0000.0,0002.82,0001.14,0000.93
2022-10-27 14:19:00,,0823.4,5.00,0.00,24.8,23.2,00.0,33.6,26.7,19.3,0000.0,0002.86,0001.16,0000.93
2022-10-27 14:20:00,,0823.3,5.00,0.00,24.8,23.2,00.0,33.6,26.7,19.4,0000.0,0002.89,0001.18,0000.94
2022-10-27 14:21:00,,0823.3,5.01,0.00,24.8,23.2,00.0,33.6,26.7,19.4,0000.0,0002.94,0001.20,0000.95
2022-10-27 14:22:00,,0823.4,5.00,0.00,24.8,23.2,00.0,33.6,26.7,19.4,0000.0,0002.94,0001.19,0000.95
2022-10-27 14:23:00,,0823.4,5.01,0.00,24.8,23.2,00.0,33.6,26.7,19.4,0000.0,0002.95,0001.19,0000.96
2022-10-27 14:24:00,,0823.5,5.01,0.00,24.8,23.2,00.0,33.6,26.7,19.4,0000.0,0002.81,0001.18,0000.96
2022-10-27 14:25:00,,0823.5,5.00,0.00,24.8,23.2,00.0,33.6,26.7,19.4,0000.0,0002.54,0001.19,0000.97
2022-10-27 14:26:00,,0823.6,5.00,0.00,24.8,23.2,00.0,33.6,26.7,19.4,0000.0,0002.44,0001.23,0000.97
2022-10-27 14:27:00,,0823.6,5.00,0.00,24.8,23.3,00.0,33.6,26.7,19.4,0000.0,0001.87,0001.26,0000.99
2022-10-27 14:28:00,,0823.7,5.00,0.00,24.8,23.3,00.0,33.6,26.8,19.4,0000.0,0001.91,0001.29,0001.01
2022-10-27 14:29:00,,0823.7,5.00,0.00,24.8,23.3,00.0,33.6,26.7,19.4,0000.0,0001.90,0001.28,0001.02
2022-10-27 14:30:00,,0823.7,5.00,0.00,24.8,23.3,00.0,33.6,26.7,19.4,0000.0,0001.94,0001.26,0001.02
2022-10-27 14:31:00,,0823.7,5.00,0.00,24.8,23.3,00.0,33.6,26.8,19.4,0000.0,0001.97,0001.27,0001.03
2022-10-27 14:32:00,,0823.7,5.00,0.00,24.8,23.3,00.0,33.6,26.8,19.4,0000.0,0001.96,0001.28,0001.05
2022-10-27 14:33:00,,0823.7,4.99,0.00,24.8,23.3,00.0,33.6,26.7,19.4,0000.0,0001.92,0001.28,0001.06
2022-10-27 14:34:00,,0823.7,5.00,0.00,24.8,23.3,00.0,33.6,26.8,19.4,0000.0,0001.86,0001.26,0001.05
2022-10-27 14:35:00,,0823.7,5.00,0.00,24.8,23.3,00.0,33.6,26.8,19.4,0000.0,0001.87,0001.26,0001.06
2022-10-27 14:36:00,,0823.8,5.00,0.00,24.8,23.3,00.0,33.6,26.8,19.4,0000.0,0001.90,0001.27,0001.07
2022-10-27 14:37:00,,0823.8,5.00,0.00,24.8,23.3,00.0,33.6,26.8,19.4,0000.0,0001.81,0001.25,0001.07
2022-10-27 14:38:00,,0823.8,4.99,0.00,24.8,23.3,00.0,33.6,26.8,19.4,0000.0,0001.70,0001.22,0001.07
2022-10-27 14:39:00,,0823.8,5.00,0.00,24.8,23.3,00.0,33.6,26.8,19.4,0000.0,0001.73,0001.23,0001.07
2022-10-27 14:40:00,,0823.8,5.00,0.00,24.8,23.3,00.0,33.6,26.8,19.5,0000.0,0001.78,0001.25,0001.07
2022-10-27 14:41:00,,0823.8,5.01,0.00,24.8,23.3,00.0,33.6,26.8,19.5,0000.0,0001.81,0001.27,0001.08
2022-10-27 14:42:00,,0823.8,4.99,0.00,24.8,23.3,00.0,33.6,26.8,19.5,0000.0,0001.85,0001.28,0001.07
2022-10-27 14:43:00,,0823.9,5.00,0.00,24.9,23.3,00.0,33.6,26.8,19.5,0000.0,0001.83,0001.27,0001.06
2022-10-27 14:44:00,,0824.0,5.00,0.00,24.9,23.3,00.0,33.7,26.8,19.5,0000.0,0001.87,0001.28,0001.07
2022-10-27 14:45:00,,0824.0,5.00,0.00,24.9,23.3,00.0,33.7,26.8,19.5,0000.0,0001.94,0001.32,0001.09
2022-10-27 14:46:00,,0824.0,5.00,0.00,24.9,23.3,00.0,33.7,26.8,19.4,0000.0,0001.98,0001.33,0001.08
2022-10-27 14:47:00,,0823.9,5.00,0.00,24.9,23.3,00.0,33.7,26.8,19.5,0000.0,0001.93,0001.32,0001.09
2022-10-27 14:48:00,,0824.0,5.01,0.00,24.9,23.3,00.0,33.7,26.8,19.5,0000.0,0001.97,0001.34,0001.09
2022-10-27 14:49:00,,0824.0,5.00,0.00,24.9,23.3,00.0,33.7,26.8,19.7,0000.0,0002.22,0001.37,0001.10
2022-10-27 14:50:00,,0824.0,5.00,0.00,24.9,23.3,00.0,33.7,26.8,19.8,0000.0,0003.06,0001.38,0001.12
2022-10-27 14:51:00,,0824.0,5.01,0.00,24.9,23.3,00.0,33.7,26.8,19.6,0000.0,0003.06,0001.40,0001.14
2022-10-27 14:52:00,,0824.1,5.00,0.00,24.9,23.3,00.0,33.7,26.8,19.5,0000.0,0003.01,0001.40,0001.15
2022-10-27 14:53:00,,0824.0,5.00,0.00,24.9,23.3,00.0,33.7,26.8,19.6,0000.0,0002.95,0001.39,0001.17
2022-10-27 14:54:00,,0824.1,5.00,0.00,24.9,23.3,00.0,33.7,26.8,19.6,0000.0,0002.98,0001.42,0001.19
2022-10-27 14:55:00,,0824.1,5.00,0.00,24.9,23.3,00.0,33.7,26.8,19.5,0000.0,0003.15,0001.46,0001.20
2022-10-27 14:56:00,,0824.1,5.00,0.00,24.9,23.3,00.0,33.7,26.8,19.6,0000.0,0003.21,0001.47,0001.21
2022-10-27 14:57:00,,0824.1,5.00,0.00,24.9,23.3,00.0,33.7,26.8,19.6,0000.0,0003.27,0001.50,0001.23
2022-10-27 14:58:00,,0824.1,5.00,0.00,24.9,23.3,00.0,33.7,26.8,19.6,0000.0,0003.52,0001.56,0001.25
2022-10-27 14:59:00,,0824.1,5.00,0.00,24.9,23.3,00.0,33.7,26.8,19.7,0000.0,0003.54,0001.58,0001.26
